Weather History for Toluca Jose Maria, Mexico

Change the Weather History Date:

Sunday, April 21, 2013

  Actual Average Record
Temperature  
Mean Temperature 59 °F -  
Max Temperature 77 °F 74 °F 82 °F (2006)
Min Temperature 41 °F 42 °F 37 °F (1999)
Degree Days  
Heating Degree Days 6    
Growing Degree Days 9 (Base 50)    
Moisture  
Dew Point 30 °F    
Average Humidity 39    
Maximum Humidity 70    
Minimum Humidity 12    
Precipitation  
Precipitation 0.00 in - - ()
Sea Level Pressure  
Sea Level Pressure 30.19 in    
Wind  
Wind Speed 3 mph ()    
Max Wind Speed 15 mph    
Max Gust Speed -    
Visibility 6.7 miles    
Events      
Averages and records for this station are not official NWS values.
T = Trace of Precipitation, MM = Missing Value Source: Averaged Metar Reports

Daily Weather History Graph

Daily Weather History Graph

Search for Another Location

Airport:

Trip Planner

Search our weather history database for the weather conditions in past years. The results will help you decide how hot, cold, wet, or windy it might be!

Date:

Astronomy

Apr. 21, 2013 Rise Set
Actual Time 7:16 AM CDT 7:57 PM CDT
Civil Twilight 6:53 AM CDT 8:20 PM CDT
Nautical Twilight 6:27 AM CDT 8:46 PM CDT
Astronomical Twilight 6:00 AM CDT 9:13 PM CDT
Moon 4:16 PM CDT (4/21) 4:03 AM CDT (4/21)
Length of Visible Light 13h 26m
Length of Day
12h 41m
Waxing Gibbous, 80% of the Moon is Illuminated
Apr 21
Waxing Gibbous
Apr 25
Full
May 2
Last Quarter
May 9
New
May 17
First Quarter

Hourly Weather History & Observations

Time (CDT) Temp. Dew Point Humidity Pressure Visibility Wind Dir Wind Speed Gust Speed Precip Events Conditions
12:45 AM 53.6 °F 35.6 °F 51% 29.78 in 7.0 mi Calm Calm - N/A   Clear
1:45 AM 48.2 °F 33.8 °F 58% 30.40 in 7.0 mi NNE 4.6 mph - N/A   Clear
2:45 AM 48.2 °F 33.8 °F 58% 30.38 in 7.0 mi Calm Calm - N/A   Clear
3:45 AM 48.2 °F 33.8 °F 58% 29.80 in 7.0 mi Calm Calm - N/A   Clear
4:45 AM 44.6 °F 33.8 °F 66% 30.36 in 7.0 mi Calm Calm - N/A   Clear
5:45 AM 44.6 °F 33.8 °F 66% 30.37 in 7.0 mi Calm Calm - N/A   Clear
6:45 AM 42.8 °F 33.8 °F 70% 29.86 in 7.0 mi Calm Calm - N/A   Clear
7:46 AM 41.0 °F 32.0 °F 70% 30.42 in 6.0 mi Calm Calm - N/A   Clear
8:44 AM 50.0 °F 35.6 °F 58% 30.44 in 6.0 mi Calm Calm - N/A   Clear
9:45 AM 59.0 °F 35.6 °F 42% 29.88 in 5.0 mi NNE 3.5 mph - N/A   Clear
10:44 AM 64.4 °F 33.8 °F 32% 30.46 in 6.0 mi WNW 4.6 mph - N/A   Clear
11:46 AM 68.0 °F 30.2 °F 24% 30.46 in 6.0 mi ENE 4.6 mph - N/A   Clear
12:51 PM 73.4 °F 21.2 °F 14% 29.78 in 7.0 mi NW 4.6 mph - N/A   Clear
1:45 PM 75.2 °F 19.4 °F 12% 30.40 in 7.0 mi East 8.1 mph - N/A   Clear
2:45 PM 77.0 °F 19.4 °F 12% 30.36 in 7.0 mi SE 8.1 mph - N/A   Scattered Clouds
3:46 PM 77.0 °F 19.4 °F 12% 29.70 in 7.0 mi SW 10.4 mph - N/A   Scattered Clouds
4:43 PM 73.4 °F 28.4 °F 19% 30.32 in 6.0 mi SW 11.5 mph - N/A   Mostly Cloudy
5:45 PM 73.4 °F 30.2 °F 20% 30.31 in 6.0 mi SSW 15.0 mph - N/A   Mostly Cloudy
6:44 PM 71.6 °F 30.2 °F 22% 29.76 in 7.0 mi South 11.5 mph - N/A   Mostly Cloudy
7:53 PM 68.0 °F 32.0 °F 26% 30.35 in 7.0 mi South 11.5 mph - N/A   Mostly Cloudy
8:45 PM 66.2 °F 30.2 °F 26% 30.37 in 7.0 mi SW 5.8 mph - N/A   Mostly Cloudy
9:43 PM 59.0 °F 32.0 °F 36% 29.84 in 7.0 mi NNW 6.9 mph - N/A   Scattered Clouds
10:42 PM 57.2 °F 32.0 °F 38% 30.42 in 7.0 mi NNW 3.5 mph - N/A   Scattered Clouds
11:43 PM 55.4 °F 32.0 °F 41% 30.43 in 7.0 mi Calm Calm - N/A   Clear